Address 0x17c562b0e8fa75354c1b45f4f5dd8a2b6f38d663 7

 

Overview

Balance:
0.004011029951947845 ETH

ETH Value:
$5.35 (@ $1,333.73/ETH)

Token:
Txn Hash Method
Block
From
To
Value [Txn Fee]
0x73ad21a3e972540a33b373c0f041a73dbbaec6395a8902e4f10c61bad37a03d5Withdraw273783682022-09-29 8:42:5922 hrs 20 mins ago0x17c562b0e8fa75354c1b45f4f5dd8a2b6f38d663OUT 0xa7376ae6df2eaec8ed30ad799c2df70d4ce682860 ETH0.00001896
0x3e1b9d5fb881edb0a6096cc5710db8455ee4c52da9e420a51890f348f3d9e68bDeposit273782942022-09-29 8:42:3322 hrs 21 mins ago0x17c562b0e8fa75354c1b45f4f5dd8a2b6f38d663OUT 0xa7376ae6df2eaec8ed30ad799c2df70d4ce682860 ETH0.00002399
0x3fde593e3c35a3c438462bfd8b5eafcde7e334a7f9b0bbb555ecba80de546ff4Withdraw273704152022-09-29 7:58:3623 hrs 5 mins ago0x17c562b0e8fa75354c1b45f4f5dd8a2b6f38d663OUT 0xa7376ae6df2eaec8ed30ad799c2df70d4ce682860 ETH0.00001849
0xd15b79ccaa8aa6ce56bea60aae83231158bf6f3d9add6dc8885ecb8bc78df0e4Deposit273703352022-09-29 7:58:0623 hrs 5 mins ago0x17c562b0e8fa75354c1b45f4f5dd8a2b6f38d663OUT 0xa7376ae6df2eaec8ed30ad799c2df70d4ce682860 ETH0.00002359
0xfc69824d704a9b908b484354d064f04bf7ea0a194ba29d8c229c0e1faadda14dWithdraw273702822022-09-29 7:57:4623 hrs 6 mins ago0x17c562b0e8fa75354c1b45f4f5dd8a2b6f38d663OUT 0xa7376ae6df2eaec8ed30ad799c2df70d4ce682860 ETH0.00001849
0xe8315e3849f8879e0a0ea86ec68ffcb0602f42adac6b9715f958b1406b3277beDeposit273499692022-09-29 6:09:461 day 54 mins ago0x17c562b0e8fa75354c1b45f4f5dd8a2b6f38d663OUT 0xa7376ae6df2eaec8ed30ad799c2df70d4ce682860 ETH0.00002343
0xbaac881ced6d405395691ad036ac9892e337e8301838244ed54f23a6f0f632d20x12424e3f273483282022-09-29 5:59:501 day 1 hr ago0x17c562b0e8fa75354c1b45f4f5dd8a2b6f38d663OUT 0xa7376ae6df2eaec8ed30ad799c2df70d4ce682860 ETH0.00001149
0xe7a7d4333e9f6bbdf733b88f91c52df8b0d2236ffb369d0ab5282b01d6aec12aApprove273477342022-09-29 5:55:551 day 1 hr ago0x17c562b0e8fa75354c1b45f4f5dd8a2b6f38d663OUT 0xff970a61a04b1ca14834a43f5de4533ebddb5cc80 ETH0.00001503
0xfbc9ca20aae89dfa38323e8d9caf191522d606eb04292e911f61c259bf8891e5Transfer273475132022-09-29 5:54:371 day 1 hr ago0x17c562b0e8fa75354c1b45f4f5dd8a2b6f38d663OUT 0xa7376ae6df2eaec8ed30ad799c2df70d4ce682860.001 ETH0.00000891
0x79126750d4d677b07691cceb8ccca9375b98503c7fe06ef2fd028402a21ebcd2Withdraw273449892022-09-29 5:38:141 day 1 hr ago0x17c562b0e8fa75354c1b45f4f5dd8a2b6f38d663OUT 0xa7376ae6df2eaec8ed30ad799c2df70d4ce682860 ETH0.00001853
0x7530c556bb26100541959bd4fc6d54329436e4d1351b971fc7251afcf82c54a6Deposit239641032022-09-10 15:45:2819 days 15 hrs ago0x17c562b0e8fa75354c1b45f4f5dd8a2b6f38d663OUT 0xa7376ae6df2eaec8ed30ad799c2df70d4ce682860 ETH0.00002882
0xb7dfde20414817a01d731eb2646d45010c814866cdb63d018eab3e1edf159611Withdraw239576562022-09-10 14:49:2919 days 16 hrs ago0x17c562b0e8fa75354c1b45f4f5dd8a2b6f38d663OUT 0xa7376ae6df2eaec8ed30ad799c2df70d4ce682860 ETH0.00002467
0xc13106278083376de4de72dc60cc5db0bcd06e1bb13a3bc5bae7dbd2b3278683Deposit239575442022-09-10 14:48:2919 days 16 hrs ago0x17c562b0e8fa75354c1b45f4f5dd8a2b6f38d663OUT 0xa7376ae6df2eaec8ed30ad799c2df70d4ce682860 ETH0.0000291
0x24fe22f60490c6d21226eac1b152c5bbaa03dfbbdc1ddee4096057bf5af704cdApprove239551782022-09-10 14:29:0319 days 16 hrs ago0x17c562b0e8fa75354c1b45f4f5dd8a2b6f38d663OUT 0xff970a61a04b1ca14834a43f5de4533ebddb5cc80 ETH0.00002344
0x4899be14cce824df51ebc431f2d7ab4160c4844bc68218fb536cf150444d6e36Initialize239550862022-09-10 14:28:2019 days 16 hrs ago0x17c562b0e8fa75354c1b45f4f5dd8a2b6f38d663OUT 0xa7376ae6df2eaec8ed30ad799c2df70d4ce682860 ETH0.00001991
0xc520c477316438ba405d85c246110d0402ddf0d9d7f8282fd502b0b3928e35bc0x61016060239545342022-09-10 14:24:0719 days 16 hrs ago0x17c562b0e8fa75354c1b45f4f5dd8a2b6f38d663OUT Contract Creation0 ETH0.00095283
0x011537ca67a9ec170167a28ed622961b79c0047865f5c643efb367ea21fe31d50x12424e3f239531042022-09-10 14:12:2019 days 16 hrs ago0x17c562b0e8fa75354c1b45f4f5dd8a2b6f38d663OUT 0x728720472774231dd5d0415737d469c80c580b040 ETH0.00001108
0x45aa06fbbf346285704fd04951b0673d6a9b360758629c0775e47cfef6667de90x4d642620239486322022-09-10 13:41:1819 days 17 hrs ago0x17c562b0e8fa75354c1b45f4f5dd8a2b6f38d663OUT 0x728720472774231dd5d0415737d469c80c580b040 ETH0.00005973
0xa45257820164a5cd433a69a54030805f3f83f3891ad9d325e7920a730423f6de0x4d642620239471362022-09-10 13:31:1619 days 17 hrs ago0x17c562b0e8fa75354c1b45f4f5dd8a2b6f38d663OUT 0x728720472774231dd5d0415737d469c80c580b040 ETH0.00006519
0xb1829e777046dd750229180950e7ae085b608377836df5d6450647fe2390bf20Transfer239470152022-09-10 13:30:2919 days 17 hrs ago0x17c562b0e8fa75354c1b45f4f5dd8a2b6f38d663OUT 0x728720472774231dd5d0415737d469c80c580b040.001 ETH0.00000729
0x4ac1fe692b9fb3087a3187564dcc100560ceec68b86b2b3c67a02515b5239c65Deposit239459552022-09-10 13:22:1119 days 17 hrs ago0x17c562b0e8fa75354c1b45f4f5dd8a2b6f38d663OUT 0x728720472774231dd5d0415737d469c80c580b040 ETH0.00001901
0x79eaffffa1db8d1508df75b598e4c74e7f5951314fac18ee1c103ef2f60c2f54Withdraw239453882022-09-10 13:18:0219 days 17 hrs ago0x17c562b0e8fa75354c1b45f4f5dd8a2b6f38d663OUT 0x728720472774231dd5d0415737d469c80c580b040 ETH0.00001245
0x7b25d5171a58ea3351da7cc77b2c8940c8365ac0342fe75c0de0615a65d395a9Withdraw239451132022-09-10 13:15:2519 days 17 hrs ago0x17c562b0e8fa75354c1b45f4f5dd8a2b6f38d663OUT 0x728720472774231dd5d0415737d469c80c580b040 ETH0.00001387
0x57d0049e654ca3c3515a37d87cd160290564bbdbb5cb17d34c45705e30a8cabbDeposit238694412022-09-10 2:39:5020 days 4 hrs ago0x17c562b0e8fa75354c1b45f4f5dd8a2b6f38d663OUT 0x728720472774231dd5d0415737d469c80c580b040 ETH0.00001762
0x9fff9690699afef88141782746875e4813d704f4095b4e93f07a171199528ab4Deposit238689982022-09-10 2:34:5120 days 4 hrs ago0x17c562b0e8fa75354c1b45f4f5dd8a2b6f38d663OUT 0x728720472774231dd5d0415737d469c80c580b040 ETH0.00002275
[ Download CSV Export 
Latest 7 internal transactions
Parent Txn Hash Block From To Value
0x73f2a67cb03bfe99d66763a3c98544bc1768482cf7150d655ba449e49c4f1f51223815362022-09-01 18:44:3528 days 12 hrs ago 0x09f77e8a13de9a35a7231028187e9fd5db8a2acb0x17c562b0e8fa75354c1b45f4f5dd8a2b6f38d6630.000300001 ETH
0x38df7fc9721ed797a4d0df4780a38cdd1dcad4e1870ea3eb36e9d61e3c3f1d69207676332022-08-20 9:51:3340 days 21 hrs ago 0x09f77e8a13de9a35a7231028187e9fd5db8a2acb0x17c562b0e8fa75354c1b45f4f5dd8a2b6f38d6630.000300001 ETH
0x1beeff4cc59a849bcd7b98d4aadca270a8edb39dda1a0608ced59aff0651bbd7207023992022-08-19 15:48:3041 days 15 hrs ago 0x09f77e8a13de9a35a7231028187e9fd5db8a2acb0x17c562b0e8fa75354c1b45f4f5dd8a2b6f38d6630.0003 ETH
0x293217b7a2c4f1577590cc01554cb40489d91142ef0e43b9981ca0b977b12037192548272022-08-03 6:01:1258 days 1 hr ago 0x66a71dcef29a0ffbdbe3c6a460a3b5bc225cd6750x17c562b0e8fa75354c1b45f4f5dd8a2b6f38d6630.000004604502135792 ETH
0xed28390dfd44b1257e000bffab825913bf6925bdfe31cd03ec13b2c6aafea926174106152022-07-11 7:27:0280 days 23 hrs ago 0x09f77e8a13de9a35a7231028187e9fd5db8a2acb0x17c562b0e8fa75354c1b45f4f5dd8a2b6f38d6630.000300001 ETH
0x58e75eecddf692345ee8dc12c1004389fdc3647eb881e2e5a2e77b9c1d8625b9174105822022-07-11 7:27:0280 days 23 hrs ago 0x3d6ba331e3d9702c5e8a8d254e5d8a285f223aba0x17c562b0e8fa75354c1b45f4f5dd8a2b6f38d6630.008695692970124082 ETH
0x3b86fbe70b505155d447f9719ea08140d89fbaab77869221c4bfee119a58d52b173813082022-07-10 16:34:5381 days 14 hrs ago 0x3d6ba331e3d9702c5e8a8d254e5d8a285f223aba0x17c562b0e8fa75354c1b45f4f5dd8a2b6f38d6630.008528284108088639 ETH
[ Download CSV Export 
Loading

Contract Name:
0 ETH

Compiler Version
0

Optimization Enabled:
0 ETH

Other Settings:
-NA-
Block Transaction Gas Used Reward
Age Block Fee Address BC Fee Address Voting Power Jailed Incoming
Block Uncle Number Difficulty Gas Used Reward
Loading
Make sure to use the "Vote Down" button for any spammy posts, and the "Vote Up" for interesting conversations.